Location: Le Vaud
(46.4779°N, 6.2346°E)
Time: 07:24:16
(UTC+00:00)

STARLINK-1087 - Pass Details

Date: 18 February 2020
Orbit: 379 x 380 km, 53.0° (Epoch: 31 March)

Event Time Altitude Azimuth Distance (km) Brightness Sun altitude
Exits shadow 04:19:15 20° 135° (SE) 956 5.2 -24.0°
Drops below altitude 10° 04:21:39 10° 86° (E) 1,413 6.8 -23.5°
Enters shadow 05:17:28 -70° 240° (WSW) 12,354 10.4 -14.0°
Maximum altitude 05:54:52 62° 334° (NNW) 439 3.0 -7.5°
